FREGAT R/B, 40316

Orbit data source: Space-Track

FREGAT R/B, 40316 is space debris in MEO originally from a launch on Sun, 30 Nov 2014 UTC launched from the Plesetsk Missile And Space Complex (PKMTR). Debris objects in space refer to the collection of defunct objects orbiting the Earth. Examples of debris include non-operational satellites, rocket bodies, and fragments generated from explosions, collisions, or faulty payload assembly.

Loading next visibility...
Identifier
40316, 2014-075B
Orbit
MEO
Country
Flag of CISCIS
Related business
Manufacturer
Lavochkin
Mission
Spacecraft
Bus & Motor
FREGAT, Unknown motor
Mass
1,000 kg wet, 1,000 kg dry
Launch date (UTC)
2014-11-30 (11 years ago)
Launch vehicle
Unknown
Launch site
Plesetsk Missile And Space Complex (PKMTR)
Object type
Payload
Rocket body
Debris
Shape & HBR
Cyl, 1.7 m
Radar Cross Section
8.354 m², Large (>1 m²)

Expand to show TLE details & history
Last TLE update: 23 hours ago

TLE from 23 hours ago
0 FREGAT R/B
1 40316U 14075B   25312.46070014  .00000031  00000-0  00000+0 0  9999
2 40316  63.5536 204.2662 0044248 135.7791 224.6550  2.08635329 83352
Epoch: 2025-11-08T11:03Z
TLE epoch observation values (Epoch: 2025-11-08T11:03:24.492Z)
Latitude
-0.00005°
Longitude
-9.47695°
Altitude
19,574.959 km
Speed
3.913 km/s
True Right ascension
13h 37m 03s
True Declination
0° 00' 00"
Sunlit
Object was in daylight at epoch
Visualization orbit readout
Latitude
Unknown
Longitude
Unknown
Altitude
Unknown
Speed
Unknown
Apparent Right ascension
Unknown
Apparent Declination
Unknown
Sunlit
N/A
Visualization observer readout
Local Sidereal Time
06:08:18
Azimuth
Unknown
Elevation
Unknown
Doppler factor
Unknown
Orbital elements
Apogee altitude
19,606.811 km
Perigee altitude
19,377.867 km
Semi-major axis
25,870.476 km
Eccentricity
0.00442
Inclination
63.5536°
RAAN
204.2662°
Arg. of periapsis
135.7791°
True anomaly
224.30003°
Mean anomaly
224.655°
Eccentric anomaly
224.47738°
Mean motion
0.5216 °/min
Orbital period
690.19 mins
BSTAR
0
Loading maneuver chart data...
Computing Atmospheric mass density...
Loading historical data...
Loading historical data...
Loading historical data...
Loading historical data...
Loading historical data...
Loading historical data...
Loading historical data...
Other satellites on launch #75 in the year 2014 (2014-11-30 UTC)

Documentation

Showing up to 5 results
|